When you browse on this site, cookies collect data to enhance your experience and personalize the content and advertising you see.
Visit our Privacy Policy to learn more. By continuing to use the site, you agree to this use of cookies and data.
  • In Slovakia
  • List of Countries
  • For 7 days
  • Water Temperature
  • Satellite Maps
  • Weather Map
  • Weather Widgets
  • user-avatar
    Login

    Hourly Weather Hulabarkmahi

    Today, 16 June, Sunday

    Time Temperature Precipitation Wind Pressure Humidity
    00:00 +12°C° 0 mm 2 mps 615 mmHg 75%
    01:00 +12°C° 0 mm 2 mps 615 mmHg 73%
    02:00 +12°C° 0 mm 2 mps 615 mmHg 71%
    03:00 +12°C° 0 mm 2 mps 614 mmHg 69%
    04:00 +13°C° 0 mm 2 mps 615 mmHg 70%
    05:00 +14°C° 0 mm 2 mps 615 mmHg 71%
    06:00 +15°C° 0 mm 1 mps 615 mmHg 71%
    07:00 +18°C° 0 mm 1 mps 616 mmHg 67%
    08:00 +20°C° 0 mm 1 mps 617 mmHg 62%
    09:00 +21°C° 0 mm 1 mps 617 mmHg 58%
    10:00 +21°C° 0.5 mm 2 mps 617 mmHg 59%
    11:00 +21°C° 0.5 mm 2 mps 617 mmHg 60%
    12:00 +21°C° 0.5 mm 2 mps 617 mmHg 61%
    13:00 +21°C° 1.2 mm 2 mps 616 mmHg 64%
    14:00 +20°C° 1.2 mm 2 mps 616 mmHg 66%
    15:00 +19°C° 1.2 mm 2 mps 615 mmHg 69%
    16:00 +18°C° 0.6 mm 2 mps 615 mmHg 73%
    17:00 +19°C° 0.6 mm 1 mps 615 mmHg 77%
    18:00 +18°C° 0.6 mm 1 mps 615 mmHg 81%
    19:00 +16°C° 0 mm 1 mps 614 mmHg 79%
    20:00 +15°C° 0 mm 2 mps 614 mmHg 78%
    21:00 +13°C° 0 mm 2 mps 613 mmHg 76%
    22:00 +13°C° 0 mm 2 mps 613 mmHg 75%
    23:00 +13°C° 0 mm 2 mps 613 mmHg 74%

    Tomorrow, 17 June, Monday

    Time Temperature Precipitation Wind Pressure Humidity
    00:00 +13°C° 0 mm 2 mps 613 mmHg 72%
    01:00 +13°C° 0 mm 2 mps 613 mmHg 72%
    02:00 +13°C° 0 mm 2 mps 613 mmHg 72%
    03:00 +13°C° 0 mm 2 mps 613 mmHg 71%
    04:00 +14°C° 0 mm 2 mps 613 mmHg 72%
    05:00 +15°C° 0 mm 2 mps 613 mmHg 73%
    06:00 +16°C° 0 mm 1 mps 614 mmHg 74%
    07:00 +18°C° 0.2 mm 1 mps 615 mmHg 70%
    08:00 +19°C° 0.2 mm 1 mps 615 mmHg 66%
    09:00 +21°C° 0.2 mm 1 mps 616 mmHg 62%
    10:00 +20°C° 1.2 mm 2 mps 616 mmHg 64%
    11:00 +20°C° 1.2 mm 2 mps 616 mmHg 66%
    12:00 +20°C° 1.2 mm 2 mps 616 mmHg 68%
    13:00 +20°C° 1.7 mm 2 mps 615 mmHg 68%
    14:00 +19°C° 1.7 mm 2 mps 615 mmHg 69%
    15:00 +19°C° 1.7 mm 2 mps 615 mmHg 69%
    16:00 +20°C° 1.1 mm 1 mps 615 mmHg 72%
    17:00 +19°C° 1.1 mm 1 mps 614 mmHg 74%
    18:00 +17°C° 1.1 mm 0 mps 614 mmHg 77%
    19:00 +18°C° 0 mm 1 mps 614 mmHg 78%
    20:00 +15°C° 0 mm 1 mps 614 mmHg 79%
    21:00 +14°C° 0 mm 1 mps 614 mmHg 79%
    22:00 +14°C° 0.5 mm 1 mps 614 mmHg 80%
    23:00 +14°C° 0.5 mm 2 mps 614 mmHg 81%

    Day after tomorrow, 18 June, Tuesday

    Time Temperature Precipitation Wind Pressure Humidity
    00:00 +12°C° 0.5 mm 3 mps 614 mmHg 82%
    01:00 +13°C° 1 mm 2 mps 614 mmHg 82%
    02:00 +13°C° 1 mm 2 mps 614 mmHg 83%
    03:00 +13°C° 1 mm 2 mps 614 mmHg 83%
    04:00 +13°C° 0 mm 1 mps 614 mmHg 81%
    05:00 +14°C° 0 mm 1 mps 614 mmHg 79%
    06:00 +14°C° 0 mm 0 mps 615 mmHg 77%
    07:00 +16°C° 0.2 mm 1 mps 615 mmHg 75%
    08:00 +18°C° 0.2 mm 1 mps 616 mmHg 72%
    09:00 +18°C° 0.2 mm 2 mps 616 mmHg 70%
    10:00 +18°C° 0.9 mm 2 mps 616 mmHg 70%
    11:00 +18°C° 0.9 mm 2 mps 616 mmHg 71%
    12:00 +18°C° 0.9 mm 2 mps 616 mmHg 71%
    13:00 +18°C° 0.9 mm 2 mps 616 mmHg 75%
    14:00 +17°C° 0.9 mm 2 mps 615 mmHg 79%
    15:00 +16°C° 0.9 mm 2 mps 615 mmHg 82%
    16:00 +15°C° 0.5 mm 1 mps 615 mmHg 84%
    17:00 +15°C° 0.5 mm 1 mps 614 mmHg 86%
    18:00 +14°C° 0.5 mm 1 mps 614 mmHg 87%
    19:00 +14°C° 0.1 mm 1 mps 614 mmHg 86%
    20:00 +13°C° 0.1 mm 1 mps 614 mmHg 86%
    21:00 +13°C° 0.1 mm 1 mps 614 mmHg 85%
    22:00 +12°C° 0 mm 1 mps 614 mmHg 85%
    23:00 +12°C° 0 mm 1 mps 614 mmHg 86%

    19 June, Wednesday

    Time Temperature Precipitation Wind Pressure Humidity
    00:00 +11°C° 0 mm 1 mps 614 mmHg 86%
    01:00 +12°C° 0.1 mm 1 mps 614 mmHg 85%
    02:00 +12°C° 0.1 mm 1 mps 614 mmHg 85%
    03:00 +13°C° 0.1 mm 1 mps 614 mmHg 84%
    04:00 +13°C° 0.4 mm 1 mps 614 mmHg 86%
    05:00 +13°C° 0.4 mm 1 mps 614 mmHg 87%
    06:00 +13°C° 0.4 mm 1 mps 614 mmHg 89%
    07:00 +13°C° 0.4 mm 1 mps 614 mmHg 88%
    08:00 +14°C° 0.4 mm 1 mps 615 mmHg 86%
    09:00 +15°C° 0.4 mm 1 mps 615 mmHg 84%
    10:00 +16°C° 0.6 mm 1 mps 615 mmHg 80%
    11:00 +17°C° 0.6 mm 2 mps 616 mmHg 75%
    12:00 +19°C° 0.6 mm 2 mps 616 mmHg 70%
    13:00 +18°C° 1.1 mm 2 mps 616 mmHg 75%
    14:00 +17°C° 1.1 mm 2 mps 615 mmHg 79%
    15:00 +16°C° 1.1 mm 1 mps 615 mmHg 84%
    16:00 +16°C° 0.6 mm 1 mps 615 mmHg 84%
    17:00 +16°C° 0.6 mm 1 mps 615 mmHg 85%
    18:00 +16°C° 0.6 mm 1 mps 615 mmHg 86%
    19:00 +15°C° 0.2 mm 1 mps 614 mmHg 86%
    20:00 +14°C° 0.2 mm 1 mps 614 mmHg 86%
    21:00 +13°C° 0.2 mm 1 mps 614 mmHg 86%
    22:00 +13°C° 0 mm 1 mps 614 mmHg 84%
    23:00 +12°C° 0 mm 1 mps 614 mmHg 83%

    20 June, Thursday

    Time Temperature Precipitation Wind Pressure Humidity
    00:00 +12°C° 0 mm 1 mps 614 mmHg 82%
    01:00 +12°C° 0 mm 1 mps 614 mmHg 81%
    02:00 +12°C° 0 mm 1 mps 613 mmHg 81%
    03:00 +11°C° 0 mm 1 mps 613 mmHg 81%
    04:00 +13°C° 0 mm 1 mps 614 mmHg 79%
    05:00 +14°C° 0 mm 1 mps 614 mmHg 78%
    06:00 +14°C° 0 mm 0 mps 615 mmHg 76%
    07:00 +16°C° 0.3 mm 1 mps 615 mmHg 75%
    08:00 +18°C° 0.3 mm 1 mps 616 mmHg 74%
    09:00 +18°C° 0.3 mm 2 mps 616 mmHg 73%
    10:00 +17°C° 1.1 mm 2 mps 616 mmHg 76%
    11:00 +17°C° 1.1 mm 2 mps 616 mmHg 78%
    12:00 +17°C° 1.1 mm 2 mps 615 mmHg 81%
    13:00 +16°C° 1.9 mm 2 mps 615 mmHg 84%
    14:00 +15°C° 1.9 mm 1 mps 614 mmHg 88%
    15:00 +14°C° 1.9 mm 1 mps 614 mmHg 91%
    16:00 +15°C° 0.3 mm 1 mps 614 mmHg 90%
    17:00 +15°C° 0.3 mm 1 mps 614 mmHg 89%
    18:00 +15°C° 0.3 mm 1 mps 614 mmHg 88%
    19:00 +14°C° 0.3 mm 1 mps 614 mmHg 89%
    20:00 +13°C° 0.3 mm 1 mps 614 mmHg 90%
    21:00 +12°C° 0.3 mm 1 mps 614 mmHg 91%
    22:00 +12°C° 0.2 mm 1 mps 614 mmHg 89%
    23:00 +12°C° 0.2 mm 1 mps 613 mmHg 87%

    21 June, Friday

    Time Temperature Precipitation Wind Pressure Humidity
    00:00 +11°C° 0.2 mm 1 mps 613 mmHg 86%
    01:00 +11°C° 0 mm 1 mps 613 mmHg 85%
    02:00 +11°C° 0 mm 1 mps 613 mmHg 84%
    03:00 +11°C° 0 mm 1 mps 613 mmHg 83%
    04:00 +12°C° 0 mm 1 mps 614 mmHg 81%
    05:00 +13°C° 0 mm 1 mps 614 mmHg 80%
    06:00 +14°C° 0 mm 1 mps 615 mmHg 79%
    07:00 +14°C° 0 mm 1 mps 615 mmHg 77%
    08:00 +15°C° 0 mm 1 mps 616 mmHg 74%
    09:00 +15°C° 0 mm 1 mps 616 mmHg 72%
    10:00 +16°C° 0 mm 2 mps 617 mmHg 70%
    11:00 +16°C° 0 mm 3 mps 617 mmHg 68%
    12:00 +17°C° 0 mm 3 mps 618 mmHg 66%
    13:00 +17°C° 0.1 mm 3 mps 617 mmHg 69%
    14:00 +16°C° 0.1 mm 2 mps 617 mmHg 71%
    15:00 +16°C° 0.1 mm 2 mps 617 mmHg 74%
    16:00 +16°C° 0 mm 1 mps 617 mmHg 75%
    17:00 +16°C° 0 mm 1 mps 617 mmHg 77%
    18:00 +16°C° 0 mm 1 mps 616 mmHg 78%
    19:00 +14°C° 0 mm 1 mps 616 mmHg 80%
    20:00 +13°C° 0 mm 1 mps 616 mmHg 83%
    21:00 +12°C° 0 mm 1 mps 615 mmHg 85%
    22:00 +12°C° 0 mm 1 mps 615 mmHg 84%
    23:00 +11°C° 0 mm 1 mps 615 mmHg 83%
    Show more